User: anonymous   Login
Location: Unspecified
(40.7945°N, 111.1337°W)
Time: 16:48:17
(UTC-06:00)
Language:

Courier 1B - Orbit

View from above orbital plane
View from above orbital plane
View from above satellite
View from above satellite

Ground track
Ground track

The orbit data is extracted from the following two-line orbital elements,

1    58U 60013A   19169.38520307  .00000077  00000-0 -15310-4 0  9996
2    58  28.3269 146.7072 0164905 286.8393  71.4126 13.46317810889916
Epoch (UTC): 18 June 2019 09:14:41
Eccentricity: 0.0164905
inclination: 28.3269°
perigee height: 963 km
apogee height: 1209 km
right ascension of ascending node: 146.7072°
argument of perigee: 286.8393°
revolutions per day: 13.46317810
mean anomaly at epoch: 71.4126°
orbit number at epoch: 88991

The dashed part of the orbit path shows where the satellite is in the earth's shadow,  

DLR